| time (UTC) | temp F | wind direction | speed MPH | gust MPH | rain 1hr in | rain 24hr in | rain mn in | humidity % | barometer mb |
| 20260502170502 | 35 | 190 | 2.0 | 11.0 | 0.00 | 0.00 | 0.00 | 73 | 1013.8 |
| 20260502163502 | 33 | 184 | 3.0 | 6.0 | 0.00 | 0.00 | 0.00 | 79 | 1013.4 |
| 20260502163002 | 33 | 225 | 1.0 | 3.0 | 0.00 | 0.00 | 0.00 | 81 | 1013.5 |
| 20260502162502 | 33 | 355 | 1.0 | 5.0 | 0.00 | 0.00 | 0.00 | 81 | 1013.3 |
| 20260502162002 | 33 | 349 | 1.0 | 1.0 | 0.00 | 0.00 | 0.00 | 81 | 1013.2 |
| 20260502161003 | 33 | 349 | 1.0 | 2.0 | 0.00 | 0.00 | 0.00 | 80 | 1012.9 |
| 20260502160502 | 33 | 347 | 1.0 | 4.0 | 0.00 | 0.00 | 0.00 | 80 | 1012.8 |
| 20260502152003 | 34 | 141 | 1.0 | 1.0 | 0.00 | 0.00 | 0.00 | 74 | 1012.4 |
| 20260502151502 | 34 | 142 | 1.0 | 3.0 | 0.00 | 0.00 | 0.00 | 74 | 1012.3 |
| 20260502151003 | 34 | 147 | 1.0 | 4.0 | 0.00 | 0.00 | 0.00 | 74 | 1012.2 |
| 20260502130502 | 33 | 148 | 3.0 | 13.0 | 0.00 | 0.00 | 0.00 | 72 | 1010.6 |
| 20260502123503 | 33 | 167 | 2.0 | 7.0 | 0.00 | 0.00 | 0.00 | 73 | 1010.4 |
| 20260502123002 | 33 | 154 | 2.0 | 6.0 | 0.00 | 0.00 | 0.00 | 73 | 1010.4 |
| 20260502122502 | 32 | 154 | 4.0 | 9.0 | 0.00 | 0.00 | 0.00 | 73 | 1010.4 |
| 20260502121502 | 32 | 139 | 3.0 | 9.0 | 0.00 | 0.00 | 0.00 | 74 | 1010.2 |
| 20260502121002 | 32 | 144 | 3.0 | 9.0 | 0.00 | 0.00 | 0.00 | 74 | 1010.2 |
| 20260502120503 | 32 | 145 | 3.0 | 6.0 | 0.00 | 0.00 | 0.00 | 74 | 1010.3 |
| 20260502115502 | 32 | 162 | 4.0 | 8.0 | 0.00 | 0.00 | 0.00 | 75 | 1010.4 |
| 20260502115002 | 32 | 179 | 3.0 | 11.0 | 0.00 | 0.00 | 0.00 | 75 | 1010.3 |
| 20260502114502 | 32 | 148 | 4.0 | 10.0 | 0.00 | 0.00 | 0.00 | 75 | 1010.3 |
| 20260502114002 | 32 | 147 | 3.0 | 11.0 | 0.00 | 0.00 | 0.00 | 75 | 1010.2 |
| 20260502113502 | 32 | 148 | 4.0 | 10.0 | 0.00 | 0.00 | 0.00 | 75 | 1010.2 |
| 20260502113002 | 32 | 152 | 4.0 | 8.0 | 0.00 | 0.00 | 0.00 | 75 | 1010.2 |
| 20260502111502 | 32 | 138 | 4.0 | 11.0 | 0.00 | 0.00 | 0.00 | 75 | 1010.1 |
| 20260502111003 | 32 | 170 | 4.0 | 12.0 | 0.00 | 0.00 | 0.00 | 75 | 1010.0 |
| 20260502110503 | 32 | 152 | 5.0 | 10.0 | 0.00 | 0.00 | 0.00 | 74 | 1010.0 |
| 20260502110004 | 32 | 171 | 3.0 | 11.0 | 0.00 | 0.00 | 0.00 | 74 | 1009.8 |
| 20260502105502 | 32 | 172 | 5.0 | 13.0 | 0.00 | 0.00 | 0.00 | 75 | 1009.7 |
| 20260502105003 | 32 | 165 | 7.0 | 12.0 | 0.00 | 0.00 | 0.00 | 75 | 1009.6 |
| 20260502104503 | 32 | 155 | 5.0 | 12.0 | 0.00 | 0.00 | 0.00 | 75 | 1009.4 |
| 20260502103502 | 31 | 172 | 3.0 | 10.0 | 0.00 | 0.00 | 0.00 | 75 | 1009.3 |
| 20260502103002 | 31 | 179 | 6.0 | 14.0 | 0.00 | 0.00 | 0.00 | 75 | 1009.2 |
| 20260502102503 | 32 | 191 | 7.0 | 14.0 | 0.00 | 0.00 | 0.00 | 75 | 1009.1 |
| 20260502101503 | 31 | 175 | 6.0 | 11.0 | 0.00 | 0.00 | 0.00 | 75 | 1008.9 |
| 20260502101003 | 31 | 151 | 2.0 | 10.0 | 0.00 | 0.00 | 0.00 | 75 | 1008.8 |
| 20260502100502 | 31 | 167 | 5.0 | 11.0 | 0.00 | 0.00 | 0.00 | 76 | 1008.7 |
| 20260502091002 | 30 | 170 | 7.0 | 19.0 | 0.00 | 0.00 | 0.00 | 78 | 1008.0 |
| 20260502090502 | 30 | 191 | 5.0 | 16.0 | 0.00 | 0.00 | 0.00 | 78 | 1007.9 |
| 20260502071503 | 31 | 197 | 4.0 | 12.0 | 0.00 | 0.00 | 0.00 | 79 | 1006.0 |
| 20260502071002 | 31 | 188 | 5.0 | 12.0 | 0.00 | 0.00 | 0.00 | 78 | 1005.9 |
| 20260502070503 | 31 | 185 | 4.0 | 14.0 | 0.00 | 0.00 | 0.00 | 77 | 1005.9 |
| 20260502070002 | 31 | 186 | 4.0 | 10.0 | 0.00 | 0.00 | 0.00 | 78 | 1005.8 |
| 20260502065503 | 31 | 181 | 7.0 | 22.0 | 0.00 | 0.00 | 0.00 | 78 | 1005.7 |
| 20260502064503 | 30 | 181 | 6.0 | 14.0 | 0.00 | 0.00 | 0.00 | 78 | 1005.4 |
| 20260502064003 | 30 | 168 | 4.0 | 10.0 | 0.00 | 0.00 | 0.00 | 79 | 1005.2 |
| 20260502063502 | 30 | 175 | 4.0 | 12.0 | 0.00 | 0.00 | 0.00 | 79 | 1005.1 |
| 20260502063002 | 30 | 162 | 5.0 | 10.0 | 0.00 | 0.00 | 0.00 | 80 | 1005.0 |
| 20260502062003 | 30 | 157 | 5.0 | 13.0 | 0.00 | 0.00 | 0.00 | 80 | 1004.8 |
| 20260502061503 | 30 | 146 | 2.0 | 10.0 | 0.00 | 0.00 | 0.00 | 81 | 1004.8 |
| 20260502061003 | 30 | 164 | 3.0 | 9.0 | 0.00 | 0.00 | 0.00 | 81 | 1004.7 |
| 20260502060503 | 30 | 153 | 4.0 | 12.0 | 0.00 | 0.00 | 0.00 | 82 | 1004.6 |
| 20260502060002 | 30 | 154 | 3.0 | 9.0 | 0.00 | 0.00 | 0.00 | 82 | 1004.4 |
| 20260502055503 | 30 | 160 | 4.0 | 14.0 | 0.00 | 0.00 | 0.00 | 82 | 1004.4 |
| 20260502054502 | 30 | 163 | 8.0 | 14.0 | 0.00 | 0.00 | 0.00 | 82 | 1004.1 |
| 20260502054003 | 30 | 169 | 6.0 | 15.0 | 0.00 | 0.00 | 0.00 | 82 | 1004.1 |
| 20260502053503 | 30 | 164 | 7.0 | 13.0 | 0.00 | 0.00 | 0.00 | 81 | 1004.0 |
| 20260502053002 | 30 | 174 | 6.0 | 11.0 | 0.00 | 0.00 | 0.00 | 81 | 1003.9 |
| 20260502052502 | 31 | 170 | 5.0 | 14.0 | 0.00 | 0.00 | 0.00 | 80 | 1003.8 |
| 20260502052003 | 31 | 180 | 6.0 | 15.0 | 0.00 | 0.00 | 0.00 | 79 | 1003.8 |
| 20260502051502 | 31 | 166 | 5.0 | 11.0 | 0.00 | 0.00 | 0.00 | 78 | 1003.8 |
| 20260502051003 | 32 | 162 | 6.0 | 12.0 | 0.00 | 0.00 | 0.00 | 77 | 1003.6 |
| 20260502050503 | 32 | 166 | 6.0 | 11.0 | 0.00 | 0.00 | 0.00 | 76 | 1003.6 |
| 20260502050002 | 32 | 175 | 7.0 | 13.0 | 0.00 | 0.00 | 0.00 | 75 | 1003.5 |
| 20260502045503 | 32 | 166 | 9.0 | 22.0 | 0.00 | 0.00 | 0.00 | 73 | 1003.4 |
| 20260502045002 | 33 | 182 | 5.0 | 13.0 | 0.00 | 0.00 | 0.00 | 72 | 1003.4 |
| 20260502044503 | 33 | 178 | 5.0 | 14.0 | 0.00 | 0.00 | 0.00 | 70 | 1003.4 |
| 20260502044002 | 33 | 187 | 6.0 | 19.0 | 0.00 | 0.00 | 0.00 | 70 | 1003.2 |
| 20260502043503 | 33 | 157 | 6.0 | 16.0 | 0.00 | 0.00 | 0.00 | 67 | 1003.1 |
| 20260502043003 | 34 | 157 | 13.0 | 24.0 | 0.00 | 0.00 | 0.00 | 66 | 1003.1 |
| 20260502042503 | 34 | 153 | 19.0 | 44.0 | 0.00 | 0.00 | 0.00 | 65 | 1003.0 |
| 20260502042002 | 34 | 174 | 10.0 | 19.0 | 0.00 | 0.00 | 0.00 | 65 | 1002.9 |
| 20260502041502 | 34 | 173 | 5.0 | 12.0 | 0.00 | 0.00 | 0.00 | 65 | 1002.9 |
| 20260502041002 | 34 | 142 | 11.0 | 24.0 | 0.00 | 0.00 | 0.00 | 64 | 1002.7 |
| 20260502040502 | 34 | 155 | 10.0 | 19.0 | 0.00 | 0.00 | 0.00 | 62 | 1002.5 |
| 20260502040003 | 34 | 161 | 6.0 | 10.0 | 0.00 | 0.00 | 0.00 | 63 | 1002.4 |
| 20260502035502 | 34 | 163 | 11.0 | 24.0 | 0.00 | 0.00 | 0.00 | 64 | 1002.6 |
| 20260502035003 | 34 | 145 | 19.0 | 35.0 | 0.00 | 0.00 | 0.00 | 64 | 1002.3 |
| 20260502034503 | 34 | 175 | 7.0 | 15.0 | 0.00 | 0.00 | 0.00 | 63 | 1002.4 |
| 20260502033502 | 35 | 172 | 14.0 | 29.0 | 0.00 | 0.00 | 0.00 | 61 | 1002.2 |
| 20260502033002 | 35 | 156 | 16.0 | 27.0 | 0.00 | 0.00 | 0.00 | 61 | 1002.1 |
| 20260502032002 | 35 | 161 | 24.0 | 35.0 | 0.00 | 0.00 | 0.00 | 59 | 1001.8 |
| 20260502031503 | 35 | 166 | 18.0 | 30.0 | 0.00 | 0.00 | 0.00 | 60 | 1001.6 |
| 20260502031002 | 35 | 156 | 16.0 | 24.0 | 0.00 | 0.00 | 0.00 | 61 | 1001.6 |
| 20260502030503 | 35 | 169 | 23.0 | 50.0 | 0.00 | 0.00 | 0.00 | 61 | 1001.6 |
| 20260502030003 | 35 | 162 | 23.0 | 69.0 | 0.00 | 0.00 | 0.00 | 59 | 1001.7 |
| 20260502025503 | 35 | 165 | 12.0 | 22.0 | 0.00 | 0.00 | 0.00 | 59 | 1001.7 |
| 20260502025004 | 35 | 161 | 21.0 | 42.0 | 0.00 | 0.00 | 0.00 | 59 | 1002.1 |
| 20260502024502 | 35 | 146 | 22.0 | 36.0 | 0.00 | 0.00 | 0.00 | 58 | 1002.1 |
| 20260502024002 | 36 | 148 | 17.0 | 44.0 | 0.00 | 0.00 | 0.00 | 58 | 1002.2 |
| 20260502023503 | 36 | 171 | 8.0 | 24.0 | 0.00 | 0.00 | 0.00 | 59 | 1002.1 |
| 20260502023003 | 36 | 161 | 12.0 | 30.0 | 0.00 | 0.00 | 0.00 | 58 | 1002.3 |
| 20260502022503 | 36 | 153 | 23.0 | 41.0 | 0.00 | 0.00 | 0.00 | 58 | 1002.3 |
| 20260502022003 | 36 | 171 | 13.0 | 30.0 | 0.00 | 0.00 | 0.00 | 57 | 1002.2 |
| 20260502021002 | 36 | 159 | 7.0 | 22.0 | 0.00 | 0.00 | 0.00 | 57 | 1002.0 |
| 20260502020002 | 36 | 166 | 8.0 | 24.0 | 0.00 | 0.00 | 0.00 | 57 | 1002.1 |
| 20260502015503 | 36 | 139 | 6.0 | 14.0 | 0.00 | 0.00 | 0.00 | 56 | 1001.8 |
| 20260502015003 | 36 | 146 | 12.0 | 23.0 | 0.00 | 0.00 | 0.00 | 57 | 1002.0 |
| 20260502014502 | 36 | 137 | 21.0 | 34.0 | 0.00 | 0.00 | 0.00 | 55 | 1002.2 |
| 20260502014002 | 37 | 123 | 19.0 | 48.0 | 0.00 | 0.00 | 0.00 | 55 | 1002.0 |
| 20260502013503 | 37 | 142 | 10.0 | 27.0 | 0.00 | 0.00 | 0.00 | 53 | 1002.5 |
| 20260502013002 | 37 | 169 | 3.0 | 11.0 | 0.00 | 0.00 | 0.00 | 53 | 1002.3 |
| 20260502012503 | 37 | 92 | 6.0 | 12.0 | 0.00 | 0.00 | 0.00 | 54 | 1002.6 |
| 20260502012003 | 37 | 92 | 4.0 | 11.0 | 0.00 | 0.00 | 0.00 | 53 | 1002.2 |
| 20260502011502 | 37 | 4 | 2.0 | 9.0 | 0.00 | 0.00 | 0.00 | 55 | 1001.9 |
| 20260502011003 | 37 | 101 | 5.0 | 13.0 | 0.00 | 0.00 | 0.00 | 54 | 1001.8 |
| 20260502010502 | 37 | 109 | 5.0 | 13.0 | 0.00 | 0.00 | 0.00 | 54 | 1002.3 |
| 20260502010002 | 37 | 328 | 6.0 | 15.0 | 0.00 | 0.00 | 0.00 | 54 | 1002.0 |
| 20260502005503 | 37 | 159 | 1.0 | 13.0 | 0.00 | 0.00 | 0.00 | 53 | 1002.2 |
| 20260502005002 | 37 | 120 | 9.0 | 23.0 | 0.00 | 0.00 | 0.00 | 52 | 1001.5 |
| 20260502004503 | 38 | 66 | 6.0 | 14.0 | 0.00 | 0.00 | 0.00 | 54 | 1002.0 |
| 20260502004003 | 38 | 76 | 8.0 | 19.0 | 0.00 | 0.00 | 0.00 | 54 | 1001.9 |
| 20260502003503 | 38 | 93 | 12.0 | 24.0 | 0.00 | 0.00 | 0.00 | 52 | 1002.2 |
| 20260502003003 | 38 | 179 | 9.0 | 30.0 | 0.00 | 0.00 | 0.00 | 52 | 1001.7 |
| 20260502002503 | 38 | 130 | 8.0 | 16.0 | 0.00 | 0.00 | 0.00 | 53 | 1001.9 |
| 20260502002003 | 37 | 172 | 6.0 | 22.0 | 0.00 | 0.00 | 0.00 | 53 | 1002.1 |
| 20260502001502 | 37 | 131 | 5.0 | 16.0 | 0.00 | 0.00 | 0.00 | 53 | 1002.4 |
| 20260502000502 | 37 | 141 | 8.0 | 23.0 | 0.00 | 0.00 | 0.00 | 53 | 1002.3 |
| 20260502000002 | 37 | 150 | 14.0 | 29.0 | 0.00 | 0.00 | 0.00 | 52 | 1001.9 |
| 20260501235502 | 37 | 152 | 19.0 | 34.0 | 0.00 | 0.00 | 0.00 | 54 | 1002.6 |
| 20260501235002 | 37 | 141 | 20.0 | 34.0 | 0.00 | 0.00 | 0.00 | 54 | 1002.5 |
| 20260501234502 | 37 | 152 | 20.0 | 41.0 | 0.00 | 0.00 | 0.00 | 54 | 1002.4 |
| 20260501234002 | 37 | 138 | 23.0 | 36.0 | 0.00 | 0.00 | 0.00 | 53 | 1002.6 |
| 20260501233503 | 37 | 143 | 23.0 | 65.0 | 0.00 | 0.00 | 0.00 | 54 | 1002.7 |
| 20260501233003 | 37 | 157 | 26.0 | 48.0 | 0.00 | 0.00 | 0.00 | 54 | 1002.5 |
| 20260501232503 | 37 | 161 | 24.0 | 42.0 | 0.00 | 0.00 | 0.00 | 54 | 1002.6 |
| 20260501232002 | 37 | 160 | 25.0 | 56.0 | 0.00 | 0.00 | 0.00 | 53 | 1002.4 |
| 20260501231503 | 37 | 153 | 27.0 | 57.0 | 0.00 | 0.00 | 0.00 | 53 | 1002.7 |
| 20260501231003 | 37 | 149 | 23.0 | 52.0 | 0.00 | 0.00 | 0.00 | 53 | 1002.4 |
| 20260501230502 | 37 | 144 | 22.0 | 35.0 | 0.00 | 0.00 | 0.00 | 54 | 1002.6 |
| 20260501230002 | 37 | 148 | 25.0 | 57.0 | 0.00 | 0.00 | 0.00 | 53 | 1002.7 |
| 20260501225503 | 37 | 164 | 26.0 | 55.0 | 0.00 | 0.00 | 0.00 | 53 | 1002.7 |
| 20260501225003 | 37 | 151 | 29.0 | 56.0 | 0.00 | 0.00 | 0.00 | 54 | 1002.9 |
| 20260501224503 | 37 | 156 | 29.0 | 54.0 | 0.00 | 0.00 | 0.00 | 53 | 1002.8 |
| 20260501224003 | 37 | 160 | 28.0 | 56.0 | 0.00 | 0.00 | 0.00 | 54 | 1002.8 |
| 20260501223002 | 37 | 156 | 28.0 | 55.0 | 0.00 | 0.00 | 0.00 | 53 | 1002.7 |
| 20260501222503 | 38 | 163 | 33.0 | 66.0 | 0.00 | 0.00 | 0.00 | 53 | 1002.6 |
| 20260501222002 | 38 | 163 | 27.0 | 53.0 | 0.00 | 0.00 | 0.00 | 53 | 1002.7 |
| 20260501221502 | 38 | 158 | 27.0 | 59.0 | 0.00 | 0.00 | 0.00 | 53 | 1002.6 |
| 20260501221002 | 38 | 155 | 26.0 | 54.0 | 0.00 | 0.00 | 0.00 | 53 | 1002.7 |
| 20260501220503 | 38 | 130 | 23.0 | 44.0 | 0.00 | 0.00 | 0.00 | 54 | 1002.7 |
| 20260501215503 | 38 | 158 | 26.0 | 42.0 | 0.00 | 0.00 | 0.00 | 53 | 1003.2 |
| 20260501215003 | 38 | 165 | 28.0 | 50.0 | 0.00 | 0.00 | 0.00 | 53 | 1003.5 |
| 20260501214502 | 38 | 149 | 28.0 | 62.0 | 0.00 | 0.00 | 0.00 | 53 | 1003.7 |
| 20260501214002 | 37 | 148 | 23.0 | 52.0 | 0.00 | 0.00 | 0.00 | 54 | 1003.7 |
| 20260501213502 | 37 | 163 | 27.0 | 44.0 | 0.00 | 0.00 | 0.00 | 52 | 1003.9 |
| 20260501213002 | 37 | 160 | 28.0 | 54.0 | 0.00 | 0.00 | 0.00 | 53 | 1004.3 |
| 20260501212502 | 37 | 155 | 28.0 | 56.0 | 0.00 | 0.00 | 0.00 | 52 | 1004.2 |
| 20260501212003 | 37 | 157 | 26.0 | 48.0 | 0.00 | 0.00 | 0.00 | 52 | 1004.4 |
| 20260501210503 | 38 | 164 | 23.0 | 41.0 | 0.00 | 0.00 | 0.00 | 51 | 1004.1 |
| 20260501210002 | 38 | 144 | 10.0 | 23.0 | 0.00 | 0.00 | 0.00 | 52 | 1004.3 |
| 20260501205503 | 38 | 154 | 23.0 | 34.0 | 0.00 | 0.00 | 0.00 | 52 | 1004.1 |
| 20260501205003 | 38 | 147 | 14.0 | 29.0 | 0.00 | 0.00 | 0.00 | 53 | 1004.4 |
| 20260501204502 | 38 | 158 | 27.0 | 41.0 | 0.00 | 0.00 | 0.00 | 52 | 1004.4 |
| 20260501204003 | 38 | 154 | 26.0 | 54.0 | 0.00 | 0.00 | 0.00 | 53 | 1004.5 |
| 20260501203503 | 38 | 149 | 22.0 | 35.0 | 0.00 | 0.00 | 0.00 | 53 | 1004.5 |
| 20260501203003 | 38 | 160 | 16.0 | 30.0 | 0.00 | 0.00 | 0.00 | 53 | 1004.7 |
| 20260501202503 | 38 | 156 | 25.0 | 42.0 | 0.00 | 0.00 | 0.00 | 52 | 1004.5 |
| 20260501201502 | 37 | 139 | 23.0 | 42.0 | 0.00 | 0.00 | 0.00 | 53 | 1004.2 |
| 20260501201002 | 37 | 160 | 24.0 | 48.0 | 0.00 | 0.00 | 0.00 | 53 | 1004.4 |
| 20260501200502 | 37 | 155 | 24.0 | 54.0 | 0.00 | 0.00 | 0.00 | 53 | 1004.7 |
| 20260501200002 | 37 | 155 | 26.0 | 63.0 | 0.00 | 0.00 | 0.00 | 52 | 1004.5 |
| 20260501195503 | 37 | 149 | 23.0 | 41.0 | 0.00 | 0.00 | 0.00 | 53 | 1004.4 |
| 20260501195002 | 37 | 151 | 25.0 | 50.0 | 0.00 | 0.00 | 0.00 | 54 | 1004.6 |
| 20260501194503 | 37 | 159 | 23.0 | 44.0 | 0.00 | 0.00 | 0.00 | 54 | 1004.7 |
| 20260501194003 | 37 | 163 | 24.0 | 41.0 | 0.00 | 0.00 | 0.00 | 54 | 1004.4 |
| 20260501193503 | 37 | 165 | 24.0 | 36.0 | 0.00 | 0.00 | 0.00 | 54 | 1004.9 |
| 20260501193002 | 37 | 155 | 17.0 | 30.0 | 0.00 | 0.00 | 0.00 | 54 | 1004.9 |
| 20260501192503 | 37 | 148 | 23.0 | 52.0 | 0.00 | 0.00 | 0.00 | 53 | 1005.1 |
| 20260501192002 | 37 | 165 | 21.0 | 41.0 | 0.00 | 0.00 | 0.00 | 54 | 1004.9 |
| 20260501191502 | 37 | 160 | 15.0 | 27.0 | 0.00 | 0.00 | 0.00 | 52 | 1005.1 |
| 20260501191002 | 37 | 153 | 20.0 | 34.0 | 0.00 | 0.00 | 0.00 | 53 | 1005.1 |
| 20260501190503 | 37 | 153 | 21.0 | 42.0 | 0.00 | 0.00 | 0.00 | 51 | 1005.0 |
| 20260501185503 | 38 | 150 | 22.0 | 36.0 | 0.00 | 0.00 | 0.00 | 52 | 1005.0 |
| 20260501185003 | 38 | 156 | 17.0 | 36.0 | 0.00 | 0.00 | 0.00 | 52 | 1005.5 |
| 20260501184003 | 37 | 155 | 9.0 | 29.0 | 0.00 | 0.00 | 0.00 | 52 | 1005.2 |
| 20260501183003 | 38 | 141 | 9.0 | 29.0 | 0.00 | 0.00 | 0.00 | 52 | 1005.2 |
| 20260501182503 | 38 | 160 | 20.0 | 35.0 | 0.00 | 0.00 | 0.00 | 51 | 1005.1 |
| 20260501182003 | 38 | 158 | 11.0 | 24.0 | 0.00 | 0.00 | 0.00 | 51 | 1005.2 |
| 20260501181502 | 38 | 181 | 5.0 | 12.0 | 0.00 | 0.00 | 0.00 | 54 | 1005.3 |
| 20260501180502 | 36 | 26 | 5.0 | 15.0 | 0.00 | 0.00 | 0.00 | 58 | 1005.5 |
| 20260501180002 | 36 | 304 | 7.0 | 13.0 | 0.00 | 0.00 | 0.00 | 59 | 1005.1 |
| 20260501175503 | 36 | 324 | 6.0 | 11.0 | 0.00 | 0.00 | 0.00 | 58 | 1005.8 |